Погода Красная Поляна

Погода Красная Поляна : погода сейчас, прогноз погоды и архив. Всё, что Вы хотите узнать о погоде Красная Поляна!

Поиск расширенной информации на нашем сайте:

Другие новости

Новости СМИ2

Главная страница сайта

Новости сайта

02.10.2013

Напоминаем, что на нашем новом сайте вы можете получить высокодетализированные прогнозы погоды по пунктам России, СНГ и мира (включающие важные для авиации метеовеличины, такие как направление и скорость ветра, видимость, явления погоды, количество и форма облачности, нижняя и верхняя граница облачности), а также ознакомиться с разнообразными материалами по авиационной метеорологии и подборкой полезных ссылок на эту тему.

Сайт Метеоцентр.Азия посвящён разработке технологий оптимизации авиаметеорологического обслуживания, включая проектирование и перспективное создание нескольких автоматизированных авиаметеорологических систем:
- система выпуска высокодетальных прогностических карт явлений погоды для нижнего воздушного пространства по России и ближнему зарубежью;
- система верификации прогнозов TAF (выпускаемых синоптиками официальных АМСГ РФ и ближнего зарубежья) и AUTOTAF (выпускаемых сайтом Метеоцентр.Азия) - выявление ошибок, онлайн-сопоставление с фактической погодой METAR, автоматическое внесение коррективов в прогнозы при резком отклонении фактической погоды от прогноза, подсчёт оправдываемости прогнозов по элементам и в целом;
- система обработки, анализа и отображения авиаметеорологической информации для применения провайдерами метеорологической информации.


Погода Красная Поляна - сегодня

Время (UTC), дата Ветер
(°,м/с) 
Видим.   Явления Облачность Т
(°С)
Тd
(°С)
f(%) Тe
(°С)
Pmin
(гПа)
dP
(гПа)
Po
(мм)
O2
(г/м3)
Тmin Tmax R s Состояние
почвы
18 22.05.17 тихо ()   15000 м  {ливн. осадки}  10/10 1000 м 
[Sc]
+9.3 +9.3 100 +11  1013.4  0.2  710  275           
21 22.05.17 200 (Ю) 16000 м  слаб. ливневой дождь  10/10 720 м кучево-дожд. 
[Cb cap]
+9.2 +9.1 99 +11  1013.2  -0.2  710  275           
00 23.05.17 090 (В) 12000 м  слаб. ливневой дождь  10/10 660 м кучево-дожд. 
[Cb cap]
+9 +9 100 +11  1012.6  -0.6  710  275           
03 23.05.17 тихо ()   20000 м  {ливн. осадки}  10/10 1000 м 
[Sc]
+9 +9 100 +10  1012.7  0.1  710  275  +8.8      влажная 
06 23.05.17 220 (ЮЗ) 20000 м  {ливн. осадки}  10/10 1500 м 
[Sc]
+10.7 +9.8 94 +14  1012.8  0.5  710  273           
09 23.05.17 220 (ЮЗ) 20000 м    10/10 1500 м 
[Sc]
+13.1 +9.5 79 +16  1011.9  -0.3  710  271           
12 23.05.17 250 (З) 20000 м  в посл. час дождь  10/10 1380 м 
[Ns]
+12.8 +11.2 90 +17  1012.6  0.6  710  271           
15 23.05.17 240 (ЮЗ) 17000 м  в посл. час дождь  10/10 600 м 
[Ns]
+10.8 +10.8 100 +15  1014.6  1.4  711  274    +13.8     
18 23.05.17 280 (З) 8000 м  слаб. дождь  10/10 450 м 
[Ns]
+9.6 +9 96 +12  1017.1  2.1  713  276           
21 23.05.17 тихо ()   7000 м  слаб. дождь  10/10 60 м 
[Ns]
+9.2 +9.2 100 +10  1017.8  0.5  713  276           
00 24.05.17 тихо ()   18000 м  в посл. час дождь  10/10 330 м 
[Ns]
+8.9 +8.9 100 +10  1017.4  -0.4  713  277           
03 24.05.17 240 (ЮЗ) 0500 м  туман  ?/?  
+8.9 +8.9 100 +11  1017.5  0.1  713  277  +8.8      влажная 
06 24.05.17 200 (Ю) 20000 м  слаб. дождь{туман}  10/10 100 м 
[Ns]
+9.9 +9.6 98 +13  1018.1  0.8  714  276           
09 24.05.17 210 (ЮЗ) 20000 м  {дождь}  10/10 1500 м кучево-дожд. 
[Cb cap]
+12 +9.6 85 +15  1017.8  0.2  714  274           
12 24.05.17 240 (ЮЗ) 18000 м  слаб. дождь  10/10 600 м 
[Ns]
+11.1 +10.3 95 +15  1018.7  0.6  714  275           
15 24.05.17 260 (З) 20000 м  в посл. час дождь  10/10 1500 м 
[Sc diur, vesp]
+10.2 +9.6 96 +13  1019.3  0.4  715  276    +12.8     
18 24.05.17 020 (С) 14000 м  {дождь}  10/10 540 м 
[Sc diur, vesp]
+9.4 +9.4 100 +11  1020.3  0.7  715  277           
21 24.05.17 тихо ()   7000 м    10/10 600 м 
[Sc diur, vesp]
+9 +9 100 +10  1020.3  -0.1  715  277           
00 25.05.17 тихо ()   20000 м    10/10 600 м 
[Sc]
+8.4 +8.4 100 +8  1019.5  -0.9  714  278           
03 25.05.17 тихо ()   20000 м  слаб. ливневой дождь  10/10 600 м кучево-дожд. 
[Cb cap]
+8.5 +8.4 99 +9  1019.6  0.1  714  278  +8.1    0.2    влажная 
06 25.05.17 090 (В) 20000 м  {ливн. осадки}  10/10 1000 м 
[Sc]
+10.2 +8.1 87 +11  1019.1  -0.1  714  276           
09 25.05.17 240 (ЮЗ) 20000 м    6/3 1000 м средняя, верхняя 
[Cu med, cong|Ac As|Ci]
+16.8 +7.2 53 +18  1016.2  -1.2  713  270           
12 25.05.17 230 (ЮЗ) 20000 м    4/4 1000 м 
[Sc diur, vesp]
+17.8 +9.4 58 +19  1015.6  -0.3  713  268           
15 25.05.17 270 (З) 19000 м    4/4 1000 м 
[Cu med, cong]
+15.1 +9.5 69 +18  1015.9  -0.3  713  270    +18.5  0.1     
18 25.05.17 010 (С) 20000 м    ясно 
+11.5 +8.9 84 +13  1017.7  0.8  714  274           
Время (UTC), дата Ветер
(°,м/с) 
Видим.   Явления Облачность Т
(°С)
Тd
(°С)
f(%) Тe
(°С)
Pmin
(гПа)
dP
(гПа)
Po
(мм)
O2
(г/м3)
Тmin Tmax R s Состояние
почвы

Для получения пояснительной информации подведите курсор к названию столбца.

ПОГОДА Красная Поляна - архив

Всё, что Вы хотите узнать о погоде Красная Поляна - удобно и подробно!

Выберите нужную дату (начиная с 1 января 2015* года) и нажмите кнопку "Найти".
Будут отображены архивные сводки погоды по пункту Красная Поляна, начиная с указанной даты.


Отображать данные в формате CSV (для использования в таблицах Excel)


Внимание! Наш архив погоды предназначен исключительно для личного некоммерческого использования в познавательных целях. Если Вам необходимы официальные справки о состоянии погоды (для производственных, юридических, коммерческих и т.п. целей), обращайтесь в органы Росгидромета.

*Примечание: данная дата относится к архиву по метеостанциям СССР (Россия, СНГ, Балтия).
Архив по метеостанциям Зарубежной Европы и Азии (кроме Китая) хранится 10 дней, по другим регионам земного шара (Китай, Африка, Америка, Австралия, Океания) - 1 день.

Красная Поляна - район местоположения метеостанции


Название, широта, долгота, высота метеостанции:
Красная Поляна 43.7°ш. 40.2°д. 568 м над ур. моря [Российская Федерация]

Дополнительная информация

В oтличие oт бoльшинства пoгoдных сайтoв мы публикуем пoдрoбную метеoинфoрмацию в детальнoм прoфессиoнальнoм фoрмате.

Характеристики температуры и влажнoсти вoздуха измеряются на высoте 2 м в тени вдали oт зданий и деревьев.
Скoрoсть ветра измеряется на высoте 10 м (на урoвне рoста челoвека скoрoсть ветра ниже в 1.5-2 раза). Если метеoстанция нахoдится в гoрoде или в лесу, тo скoрoсть ветра занижена на 2-4 м/с пo сравнению с oткрытым местoм. Скoрoсть ветра над акватoриями крупных рек и oзёр, а также на вершинах хoлмoв на 2-5 м/с выше, чем в oбычных услoвиях.
Атмoсфернoе давление в разных тoчках местнoсти мoжет значительнo oтличаться oт давления на метеoстанции, в зависимoсти oт услoвий рельефа (при пoдъёме на 10 м давление пoнижается примернo на 1 мм рт.ст.).